Location: Großaitingen
(48.2290°N, 10.7791°E)
Time: 20:59:30
(UTC+00:00)

Daily predictions for brighter satellites

Satellite Brightness Start Highest point End
(mag) Time Altitude Azimuth Time Altitude Azimuth Time Altitude Azimuth
Cosmos 1607 4.3 16:56:30 10° S 17:02:15 44° ESE 17:08:04 10° NE
USA 267 3.5 16:56:03 10° NE 17:02:36 73° NNW 17:09:06 10° WSW
Cosmos 1864 Rocket 4.4 16:56:48 10° N 17:02:56 71° E 17:09:04 10° SSE
Cosmos 1356 Rocket 3.9 16:59:30 10° N 17:03:06 34° ENE 17:06:42 10° SE
Cosmos 2297 Rocket 3.6 17:01:32 10° SE 17:05:13 18° E 17:08:55 10° ENE
USA 290 2.8 17:02:52 10° S 17:05:51 37° ESE 17:08:50 10° NE
Cosmos 1441 Rocket 3.3 17:02:36 10° SSW 17:05:56 64° WNW 17:09:15 10° N
In-Cosmos 22 Rocket 4.2 17:00:52 10° S 17:06:21 88° E 17:12:01 10° NNE
Cosmos 1814 Rocket 4.2 17:03:44 10° S 17:08:51 52° ESE 17:13:56 10° NNE
SAR-Lupe-4 3.6 17:05:50 10° SSE 17:09:19 56° ENE 17:12:51 10° N
SAR-Lupe-5 4.0 17:07:20 10° NNE 17:09:54 70° ESE 17:12:21 10° S
ATLAS 3B R/B 4.3 17:03:08 10° NW 17:10:26 45° WSW 17:17:19 10° S
IRS-1C 4.4 17:07:44 10° S 17:13:03 76° WSW 17:18:24 10° NNW
Cosmos 1125 Rocket 4.1 17:08:24 10° N 17:13:09 35° ENE 17:17:53 10° ESE
Cosmos 1455 Rocket 4.4 17:11:04 10° NNE 17:14:01 18° ENE 17:16:57 10° ESE
Cosmos 2221 Rocket 4.4 17:15:24 10° SSE 17:19:15 29° E 17:23:08 10° NNE
YAOGAN 1 2.6 17:16:18 10° SSE 17:20:27 56° ENE 17:24:39 10° N
Cosmos 2123 Rocket 4.1 17:15:06 10° S 17:21:25 87° E 17:27:46 10° N
Okean 2 Rocket 3.3 17:18:43 10° N 17:22:58 45° ENE 17:27:09 10° SSE
NOSS 3-3 (C) 4.2 17:18:26 10° S 17:23:10 38° ESE 17:28:41 10° NE
NOAA 6 4.4 17:18:39 10° SE 17:23:29 43° ENE 17:28:21 10° N
Spot 4 Rocket 4.1 17:20:44 10° SE 17:25:42 55° ENE 17:30:41 10° N
Okean 1 Rocket 3.4 17:22:14 10° N 17:26:27 42° ENE 17:30:36 10° SSE
COSMOS 2428 2.7 17:22:56 10° NNW 17:28:41 73° ENE 17:34:24 10° SE
Cosmos 1980 4.1 17:26:59 10° NNW 17:32:20 40° NE 17:37:38 10° ESE
ARIANE 5 R/B 3.6 17:27:24 10° S 17:32:22 50° W 17:37:18 10° NNW
Sich 1 Rocket 3.9 17:28:07 10° N 17:32:32 47° ENE 17:36:55 10° SSE
Cosmos 158 Rocket 3.8 17:31:59 10° SSW 17:36:51 82° ESE 17:41:44 10° NNE
Aureole 3 Rocket 3.2 17:33:53 10° N 17:37:56 37° ENE 17:41:08 10° SE
Cosmos 2237 Rocket 2.6 17:32:35 10° NNW 17:37:58 41° NE 17:43:19 10° ESE
SeaSat 1 3.6 17:34:36 10° S 17:39:19 47° WSW 17:44:04 10° NW
ATLAS 5 CENTAUR R/B 2.7 17:35:17 10° NW 17:39:29 51° SW 17:44:40 10° SSE
Cosmos 192 4.2 17:34:47 10° NNW 17:39:42 83° ENE 17:44:34 10° SSE
Cosmos 1378 Rocket 3.7 17:35:39 10° SSW 17:39:59 78° WNW 17:44:17 10° N
Resurs 01 Rocket 1.9 17:36:39 10° SE 17:40:48 43° ENE 17:44:59 10° N
SKYMED 2 3.7 17:38:51 10° NNE 17:43:13 80° WNW 17:47:33 10° SSW
GP-B 3.8 17:39:32 10° SSW 17:43:50 58° W 17:48:10 10° N
Cosmos 2219 Rocket 4.2 17:42:36 10° NW 17:47:28 31° WSW 17:52:17 10° SSW
COSMO-SKYMED 1 2.3 17:43:25 10° NNE 17:47:32 68° ESE 17:51:38 10° S
Cosmos 2228 4.1 17:45:52 10° NNE 17:49:07 21° ENE 17:49:16 21° ENE
PSLV R/B 3.3 17:46:31 10° SSE 17:50:38 74° ENE 17:54:44 10° N
NOSS 3-3 (A) 3.6 17:46:45 10° SSW 17:51:52 70° SE 17:57:35 12° NE
Cosmos 2322 4.1 17:47:13 10° NNW 17:52:54 69° WSW 17:58:34 10° SSE
Cosmos 1447 Rocket 4.4 17:47:24 10° S 17:53:24 61° E 17:59:27 10° NNE
Resurs 1-3 4.0 17:50:07 10° S 17:54:23 63° W 17:58:40 10° NNW
USA 306 0.9 17:52:07 10° WNW 17:54:53 85° SW 17:55:03 72° SE
Cosmos 1025 Rocket 3.0 17:53:59 10° S 17:58:16 90° WNW 18:02:38 10° N
SJ-7 4.2 17:54:44 10° S 17:58:25 78° WSW 18:02:08 10° NNW
Cosmos 2285 Rocket 4.0 17:53:25 10° NNW 17:59:53 72° ENE 18:06:15 10° SSE
SL-16 R/B 3.4 17:56:45 10° N 18:01:12 23° NE 18:02:26 21° ENE
Cosmos 1375 Rocket 4.5 17:56:35 10° SSW 18:02:55 75° ESE 18:09:11 11° NE
Cosmos 2227 Rocket 3.3 17:59:44 10° SSE 18:03:35 22° ESE 18:03:35 22° ESE
SJ-6B 2.5 18:05:12 17° SE 18:07:35 52° ENE 18:10:58 10° N
SPOT 5 3.6 18:08:20 29° E 18:09:30 32° ENE 18:13:57 10° N
NOSS 3-4 (A) 3.9 18:03:43 10° NW 18:10:12 57° NE 18:15:10 22° ESE
NOSS 3-4 (C) 3.9 18:03:59 10° NW 18:10:28 57° NE 18:15:23 23° ESE
CZ-2D R/B 4.4 18:08:33 10° S 18:12:18 46° W 18:16:09 10° NNW
Cosmos 1513 Rocket 4.4 18:12:29 10° N 18:18:45 71° E 18:25:05 10° SSE
CZ-4 R/B 3.3 18:28:09 15° NNE 18:28:09 15° NNE 18:28:55 10° N
CZ-4B R/B 4.2 18:26:45 26° NE 18:26:45 26° NE 18:30:24 10° N
ATLAS 2AS CENTAUR R/B 4.3 18:20:46 10° WNW 18:26:19 25° NNW 18:31:15 12° NE
Helios 1A Rocket 4.1 18:28:45 21° S 18:28:45 21° S 18:30:00 10° S
Lacrosse 5 rocket 2.4 18:24:16 10° W 18:27:25 30° NNW 18:28:21 26° N
Atlas Centaur 2 4.4 18:23:37 10° SW 18:27:52 16° S 18:30:58 12° SSE
Meteor 1-31 Rocket 4.3 18:32:59 20° N 18:32:59 20° N 18:34:14 10° N
CZ-4C R/B 2.4 18:28:19 10° WSW 18:32:34 55° NW 18:36:09 20° NNE
IRAS Rocket 4.3 18:28:35 10° SSE 18:34:11 79° WSW 18:39:51 10° NNW
CRYOSAT 2 4.5 18:32:58 10° N 18:37:52 76° W 18:42:44 10° SSW
USA 267 4.0 18:41:48 25° NE 18:45:08 44° N 18:51:15 10° WNW
CSL-04 Debris 4.1 18:44:38 44° SE 18:46:17 65° ENE 18:51:40 10° N
Cosmos 1464 Rocket 3.9 18:40:07 10° N 18:46:32 79° E 18:52:51 10° SSE
ERS-1 Rocket 4.3 18:48:49 25° NNE 18:48:49 25° NNE 18:51:20 10° N
Cosmos 2297 Rocket 2.2 18:42:52 10° SSW 18:48:33 80° WNW 18:52:37 20° NNE
CSL-04 Rocket 3.4 18:47:25 42° SE 18:49:13 73° ENE 18:54:29 10° N
Cosmos 1570 Rocket 3.9 18:44:10 10° SSW 18:49:28 87° WNW 18:52:48 23° NNE
Cosmos 2344 3.7 18:43:28 10° S 18:50:51 42° ESE 18:51:12 42° ESE
BREEZE-M DEB (TANK) 4.4 18:47:12 10° WNW 18:51:22 67° SSW 18:56:52 29° SE
Cosmos 1455 Rocket 3.8 18:47:51 10° NNW 18:52:02 51° W 18:56:11 10° S
Cosmos 1975 Rocket 3.7 18:47:45 10° S 18:50:38 41° S 18:50:38 41° S
DNEPR-1 R/B 3.9 18:49:13 10° NW 18:54:01 66° NE 18:54:13 65° ENE
PAYLOAD B 4.2 19:05:27 66° NE 19:05:27 66° NE 19:10:45 10° N
Cosmos 2208 Rocket 3.9 19:01:25 10° SSW 19:06:39 86° WNW 19:07:29 64° NNE
Terra 3.8 19:11:53 18° N 19:11:53 18° N 19:13:12 10° N
Resurs 01 Rocket 4.0 19:13:56 10° SW 19:17:21 22° W 19:20:48 10° NW
Cosmos 2237 Rocket 3.5 19:16:46 10° NW 19:21:59 38° WSW 19:25:52 17° SSW
Cosmos 44 Rocket 4.1 19:17:58 10° SW 19:21:20 45° SW 19:21:20 45° SW
Cosmos 773 Rocket 4.4 19:18:52 10° SW 19:24:04 60° WNW 19:25:06 50° NNW
Cosmos 2228 4.4 19:22:20 10° NNW 19:25:36 36° WNW 19:25:36 36° WNW
Orbus 7S? 4.5 19:22:44 10° NW 19:28:58 53° W 19:28:58 53° W
SL-16 R/B 2.9 19:40:17 10° NNW 19:44:20 48° NW 19:44:20 48° NW
SPOT 5 4.2 19:47:22 36° W 19:47:22 36° W 19:51:57 10° NNW
Cosmos 2227 Rocket 3.2 19:41:54 10° SW 19:45:30 39° SW 19:45:30 39° SW
BREEZE-M DEB (TANK) 4.3 19:58:42 10° W 20:10:46 59° WSW 20:10:46 59° WSW
ATLAS 2AS CENTAUR R/B 4.3 20:14:14 10° NW 20:18:40 23° N 20:18:40 23° N
CZ-4C R/B 4.2 20:18:17 10° WNW 20:21:07 20° NNW 20:21:07 20° NNW
USA 267 4.3 20:29:08 38° NNW 20:29:08 38° NNW 20:33:34 10° WNW
Cosmos 2297 Rocket 4.5 20:29:32 10° W 20:33:31 19° NW 20:34:29 18° NNW
